Location: Newark
(40.9833°N, 0.0333°W)
Time: 02:22:50
(UTC+00:00)

Altair - Pass Details

Date: 02 November 2020
Orbit: 1502 x 1682 km, 47.2° (Epoch: 02 December)

Event Time Altitude Azimuth Distance (km) Brightness Sun altitude
Rises 01:42:45 0° 194° (SSW) 4,621 - -53.3°
Reaches altitude 10° 01:46:21 10° 182° (S) 3,642 - -52.7°
Maximum altitude 01:53:34 27° 129° (SE) 2,576 - -51.6°
Exits shadow 01:56:33 23° 102° (ESE) 2,801 9.0 -51.1°
Drops below altitude 10° 02:00:54 10° 77° (ENE) 3,703 9.9 -50.4°
Sets 02:04:33 0° 66° (ENE) 4,712 10.7 -49.8°
